Find Starlink 30945

NORAD ID: 58874 Int'l Des: 2024-019 Owner: SPXS Country: US Constellation: starlink operational
LEOCIRCULAR

リアルタイム位置

3D地球を読み込み中...

Starlink 30945について

説明を読み込み中...

次回通過

Passes for default location (London). Set your location on the main map for personalized predictions.

高度履歴

Loading altitude history...

軌道要素

1 58874U 24019X 26104.21549205 .00000613 00000-0 31816-4 0 9992
2 58874 43.0039 48.4485 0001194 272.9935 87.0781 15.27575231124510
Epoch: Apr 14, 2026 • Age: 11 hours

現在のステータス

高度 486.2 km
速度 7.63 km/s
衛星直下点 39.62°N, 18.07°E
打ち上げ日 Jan 29, 2024
運用期間 2.2 years
タイプ internet

技術仕様

分類 Payload
質量 730.00 kg
乾燥質量 700.00 kg
総質量 730.00 kg
長さ 0.30 m
直径 4.10 m
スパン 29.00 m
形状 Box + pan
製造者 SPXS
バスタイプ Starlink V2M
フェーズステータス In Orbit
所有者/国 SPXS/US

Most Searched